PBD2011 UWLL-UUWW

Flight info

Callsign PBD2011
Flight time N/A
Altitude 38000
Route ARPUD T750 OKSUD T787 OTKOL T784 LARNO T291 URIDU L158 DIMGI
Aircraft B738/M-SDE2E3FGHIRWXY/LB1

Departure

Time 2026-04-30 17:57
Airport Ulyanovsk Baratayevka Airport (UWLL)

Arrival

Time N/A
Airport Vnukovo International Airport (UUWW)
Time Latitude Longitude Altitude Speed Heading
2026-04-30 17:39 54.28492 48.23475 375 ft 0 kts 168°
2026-04-30 17:46 54.28397 48.23615 381 ft 10 kts 123°
2026-04-30 17:47 54.28357 48.23722 383 ft 0 kts 123°
2026-04-30 17:48 54.28207 48.24126 384 ft 0 kts 123°
2026-04-30 17:48 54.28087 48.24148 389 ft 15 kts 212°
2026-04-30 17:49 54.27554 48.23571 406 ft 29 kts 212°
2026-04-30 17:50 54.26826 48.22791 427 ft 36 kts 212°
2026-04-30 17:51 54.26375 48.22250 437 ft 16 kts 264°
2026-04-30 17:52 54.26376 48.22138 444 ft 0 kts 271°
2026-04-30 17:55 54.26469 48.21968 433 ft 0 kts 32°
2026-04-30 17:56 54.27164 48.22714 412 ft 139 kts 32°
2026-04-30 17:57 54.30542 48.26291 2474 ft 199 kts 32°
2026-04-30 17:58 54.34392 48.27863 4219 ft 228 kts 327°
2026-04-30 17:59 54.38021 48.16769 5559 ft 315 kts 295°
2026-04-30 18:00 54.42283 48.01830 6847 ft 341 kts 295°
2026-04-30 18:00 54.45214 47.91719 7746 ft 314 kts 295°
2026-04-30 18:01 54.47153 47.84971 8607 ft 317 kts 294°
2026-04-30 18:02 54.50051 47.74597 10312 ft 322 kts 293°
2026-04-30 18:02 54.52970 47.64086 11940 ft 329 kts 292°
2026-04-30 18:03 54.55954 47.53302 13656 ft 338 kts 291°
2026-04-30 18:04 54.59018 47.42184 15283 ft 345 kts 290°
2026-04-30 18:05 54.63165 47.27058 17531 ft 353 kts 289°
2026-04-30 18:06 54.67436 47.11361 19751 ft 369 kts 288°
2026-04-30 18:07 54.71805 46.95219 21979 ft 373 kts 288°
2026-04-30 18:08 54.75098 46.82961 23761 ft 378 kts 287°
2026-04-30 18:09 54.79545 46.66319 25834 ft 383 kts 288°
2026-04-30 18:10 54.85035 46.50344 28057 ft 392 kts 303°
2026-04-30 18:11 54.91847 46.35774 30398 ft 385 kts 304°
2026-04-30 18:11 54.96757 46.24955 31923 ft 373 kts 304°
2026-04-30 18:12 55.01448 46.14507 33513 ft 357 kts 304°
2026-04-30 18:13 55.04455 46.07778 34178 ft 356 kts 304°
2026-04-30 18:13 55.08631 45.98383 34265 ft 377 kts 304°
2026-04-30 18:14 55.11898 45.91018 34275 ft 394 kts 304°
2026-04-30 18:15 55.17091 45.79281 34282 ft 419 kts 304°
2026-04-30 18:15 55.22558 45.66866 34279 ft 442 kts 304°
2026-04-30 18:16 55.26352 45.58213 34371 ft 453 kts 304°
2026-04-30 18:16 55.30207 45.49397 34757 ft 456 kts 305°
2026-04-30 18:17 55.32139 45.44965 34950 ft 457 kts 305°
2026-04-30 18:17 55.34073 45.40519 35145 ft 458 kts 305°
2026-04-30 18:17 55.37925 45.31635 35536 ft 459 kts 305°
2026-04-30 18:18 55.39863 45.27155 35732 ft 460 kts 305°
2026-04-30 18:18 55.41800 45.22669 35946 ft 460 kts 305°
2026-04-30 18:18 55.43734 45.18180 36174 ft 460 kts 305°
2026-04-30 18:18 55.45665 45.13691 36396 ft 459 kts 305°
2026-04-30 18:19 55.47591 45.09205 36630 ft 459 kts 305°
2026-04-30 18:19 55.49518 45.04707 36857 ft 458 kts 305°
2026-04-30 18:19 55.51444 45.00206 37086 ft 457 kts 305°
2026-04-30 18:19 55.53330 44.95791 37321 ft 456 kts 305°
2026-04-30 18:20 55.55117 44.91169 37507 ft 454 kts 296°
2026-04-30 18:20 55.56372 44.86081 37773 ft 450 kts 286°
2026-04-30 18:20 55.57121 44.80731 38008 ft 446 kts 276°
2026-04-30 18:20 55.57363 44.75269 38161 ft 445 kts 271°
2026-04-30 18:21 55.57483 44.69757 38138 ft 449 kts 271°
2026-04-30 18:21 55.57678 44.58730 38144 ft 453 kts 271°
2026-04-30 18:22 55.57915 44.47564 38151 ft 455 kts 271°
2026-04-30 18:22 55.58308 44.30759 38145 ft 458 kts 271°
2026-04-30 18:23 55.58562 44.19500 38148 ft 458 kts 271°
2026-04-30 18:23 55.58805 44.08236 38143 ft 458 kts 271°
2026-04-30 18:24 55.59148 43.91422 38152 ft 457 kts 271°
2026-04-30 18:25 55.59726 43.80203 38151 ft 458 kts 283°
2026-04-30 18:25 55.61989 43.69713 38161 ft 459 kts 299°
2026-04-30 18:25 55.63593 43.64817 38173 ft 459 kts 300°
2026-04-30 18:26 55.68465 43.50241 38159 ft 460 kts 299°
2026-04-30 18:27 55.73243 43.35507 38174 ft 460 kts 299°
2026-04-30 18:28 55.77989 43.20630 38166 ft 461 kts 295°
2026-04-30 18:28 55.80318 43.04225 38189 ft 459 kts 275°
2026-04-30 18:29 55.81477 42.81559 38182 ft 460 kts 275°
2026-04-30 18:30 55.82709 42.58917 38182 ft 461 kts 275°
2026-04-30 18:31 55.83623 42.41845 38180 ft 461 kts 275°
2026-04-30 18:32 55.84507 42.24845 38190 ft 461 kts 275°
2026-04-30 18:33 55.85371 42.07757 38194 ft 462 kts 275°
2026-04-30 18:33 55.86213 41.90660 38185 ft 461 kts 275°
2026-04-30 18:34 55.86791 41.73629 38186 ft 461 kts 268°
2026-04-30 18:35 55.86428 41.62163 38189 ft 461 kts 266°
2026-04-30 18:35 55.85997 41.50818 38197 ft 461 kts 266°
2026-04-30 18:36 55.85418 41.33693 38203 ft 461 kts 267°
2026-04-30 18:37 55.84856 41.16652 38205 ft 461 kts 267°
2026-04-30 18:37 55.84465 41.05230 38203 ft 461 kts 267°
2026-04-30 18:38 55.84065 40.93885 38207 ft 461 kts 267°
2026-04-30 18:38 55.83651 40.82452 38203 ft 461 kts 267°
2026-04-30 18:39 55.83231 40.71126 38210 ft 461 kts 267°
2026-04-30 18:39 55.83015 40.65401 38019 ft 465 kts 267°
2026-04-30 18:39 55.82793 40.59629 37509 ft 468 kts 266°
2026-04-30 18:39 55.82561 40.53838 36912 ft 468 kts 266°
2026-04-30 18:40 55.82324 40.48059 36246 ft 465 kts 266°
2026-04-30 18:40 55.82090 40.42434 35601 ft 459 kts 266°
2026-04-30 18:40 55.81854 40.36798 34986 ft 453 kts 266°
2026-04-30 18:40 55.81618 40.31230 34377 ft 447 kts 267°
2026-04-30 18:41 55.81384 40.25724 33675 ft 441 kts 267°
2026-04-30 18:41 55.81151 40.20315 32968 ft 434 kts 267°
2026-04-30 18:41 55.80924 40.15058 32280 ft 430 kts 266°
2026-04-30 18:41 55.80692 40.09763 31615 ft 427 kts 266°
2026-04-30 18:42 55.80460 40.04513 30944 ft 421 kts 266°
2026-04-30 18:42 55.80000 39.94227 29528 ft 418 kts 266°
2026-04-30 18:42 55.79767 39.89073 28766 ft 417 kts 266°
2026-04-30 18:45 55.74371 39.42073 26329 ft 401 kts 251°
2026-04-30 18:45 55.73436 39.37479 25852 ft 399 kts 251°
2026-04-30 18:45 55.72500 39.32843 25374 ft 397 kts 251°
2026-04-30 18:46 55.71575 39.28232 24900 ft 394 kts 251°
2026-04-30 18:46 55.70660 39.23656 24436 ft 391 kts 251°
2026-04-30 18:46 55.69766 39.19181 23985 ft 385 kts 251°
2026-04-30 18:46 55.68882 39.14761 23493 ft 375 kts 251°
2026-04-30 18:47 55.68018 39.10448 22963 ft 367 kts 251°
2026-04-30 18:47 55.67169 39.06219 22454 ft 361 kts 251°
2026-04-30 18:47 55.66331 39.02053 21939 ft 355 kts 251°
2026-04-30 18:47 55.65512 38.97989 21466 ft 357 kts 251°
2026-04-30 18:48 55.64671 38.93825 20979 ft 360 kts 251°
2026-04-30 18:48 55.63828 38.89655 20517 ft 358 kts 251°
2026-04-30 18:48 55.62988 38.85517 20067 ft 354 kts 251°
2026-04-30 18:48 55.62157 38.81426 19599 ft 351 kts 251°
2026-04-30 18:49 55.61330 38.77369 19142 ft 349 kts 251°
2026-04-30 18:49 55.60506 38.73331 18698 ft 347 kts 251°
2026-04-30 18:49 55.59696 38.69371 18215 ft 345 kts 251°
2026-04-30 18:49 55.58878 38.65380 17703 ft 343 kts 251°
2026-04-30 18:50 55.58067 38.61427 17193 ft 341 kts 251°
2026-04-30 18:50 55.57257 38.57493 16712 ft 339 kts 251°
2026-04-30 18:50 55.56462 38.53636 16290 ft 335 kts 251°
2026-04-30 18:50 55.55662 38.49763 16241 ft 336 kts 251°
2026-04-30 18:51 55.54861 38.45890 16216 ft 334 kts 251°
2026-04-30 18:51 55.54062 38.42037 16216 ft 334 kts 251°
2026-04-30 18:51 55.53272 38.38216 16215 ft 334 kts 252°
2026-04-30 18:51 55.52756 38.34212 16039 ft 335 kts 263°
2026-04-30 18:52 55.52461 38.30127 15626 ft 334 kts 264°
2026-04-30 18:52 55.52197 38.26072 15227 ft 329 kts 264°
2026-04-30 18:52 55.51938 38.22084 14842 ft 325 kts 264°
2026-04-30 18:52 55.51674 38.18128 14468 ft 324 kts 264°
2026-04-30 18:53 55.51404 38.14186 14099 ft 323 kts 264°
2026-04-30 18:53 55.51132 38.10308 13682 ft 322 kts 264°
2026-04-30 18:53 55.50854 38.06398 13269 ft 320 kts 264°
2026-04-30 18:53 55.50572 38.02496 12851 ft 319 kts 264°
2026-04-30 18:54 55.50289 37.98604 12438 ft 318 kts 264°
2026-04-30 18:54 55.50009 37.94785 12044 ft 316 kts 264°
2026-04-30 18:54 55.49726 37.90948 11644 ft 314 kts 264°
2026-04-30 18:54 55.49630 37.89654 11518 ft 314 kts 264°